STARLINK-34470

Last updated on Sat Jul 19 2025 00:02:08 GMT+0000 (Coordinated Universal Time)

1 64703U 25142H 25199.58335648 -.01238180 00000+0 -21416-1 0 9991 2 64703 70.0002 194.6551 0004115 276.0780 168.4080 15.53407174 4168
UTC large
Height (km)
Speed (km/s)
/
Latitude / Longitude
Inclination (degrees)
Orbital Period (minutes)
Azimuth
Elevation
Range (km)
Doppler Factor

Next 0 passes for location: London (51.5072 / 0.1276)

Sorry there are no passes over London.